Regional Weather Roundup
Issued by NWS

Home | Current Version | Previous Version | Graphics & Text | Print | Product List | Glossary Off
Versions: 1 2 3 4 5 6 7 8 9 10 11 12 13 14 15 16 17 18 19 20 21 22 23 24 25 26 27 28 29 30 31 32 33 34 35 36 37 38 39 40 41 42 43 44 45 46 47 48 49 50

000
ASUS43 KTOP 181359
RWRKS

WEATHER ROUNDUP FOR KANSAS
NATIONAL WEATHER SERVICE GOODLAND KS
900 AM CDT SAT APR 18 2015

NOTE:  "FAIR" INDICATES FEW OR NO CLOUDS BELOW 12,000 FEET WITH NO
SIGNIFICANT WEATHER AND/OR OBSTRUCTIONS TO VISIBILITY.

KSZ001>006-013>018-027>032-041>047-181500-
NORTHWEST KANSAS

CITY           SKY/WX    TMP DP  RH WIND       PRES   REMARKS
GOODLAND       CLOUDY    45  45 100 E8        29.92R FOG
HAYS           CLOUDY    54  45  71 S3        29.91S
HILL CITY      CLOUDY    51  48  89 CALM      29.93S
RUSSELL        CLOUDY    57  54  89 CALM      29.89S
$$

KSZ061>065-074>080-084>089-181500-
SOUTHWEST KANSAS

CITY           SKY/WX    TMP DP  RH WIND       PRES   REMARKS
DODGE CITY     CLOUDY    54  51  90 S9        29.89S
ELKHART          N/A    N/A N/A N/A MISG        N/A
GARDEN CITY    PTSUNNY   53  50  89 S13       29.87F
GREAT BEND     CLOUDY    55  52  88 SW3       29.89F
LIBERAL        SUNNY     46  39  76 NW9       29.92F
$$

KSZ066>073-081>083-090>101-181500-
SOUTHEAST KANSAS

CITY           SKY/WX    TMP DP  RH WIND       PRES   REMARKS
CHANUTE        LGT RAIN  61  60  97 W3        29.95S
COFFEYVILLE    CLOUDY    61  59  93 SE6       29.96S
HUTCHINSON     CLOUDY    62  58  86 S6        29.91S
MEDICINE LODGE   N/A     60  58  92 VRB5      29.91R
NEWTON         CLOUDY    59  55  88 S5        29.93F
PARSONS        LGT RAIN  61  61 100 CALM      29.97R
WICHITA INTL   CLOUDY    62  59  90 S5        29.90F
WICHITA JABRA  CLOUDY    62  60  93 MISG      29.91S
WINFIELD       CLOUDY    62  61  96 MISG      29.93R
$$

KSZ007>012-019>026-033>040-048>060-102>105-181500-
NORTHEAST KANSAS

CITY           SKY/WX    TMP DP  RH WIND       PRES   REMARKS
CONCORDIA      CLOUDY    58  58 100 SE5       29.89F FOG
EMPORIA        LGT RAIN  59  57  93 E6        29.95R FOG
LAWRENCE       LGT RAIN  59  57  93 S5        29.92S
MANHATTAN      CLOUDY    61  60  97 S5        29.92R FOG
OLATHE IND     LGT RAIN  61  58  90 SW23G30   29.94R FOG
OLATHE EXE     TSTM      61  59  93 SW13      29.92R
SALINA         CLOUDY    61  57  87 E7        29.90F
TOPEKA BILLARD TSTM      60  57  89 SW9       29.92S VSB 3/4
TOPEKA FORBES  TSTM      61  58  90 CALM      29.93R FOG
$$



USA.gov is the U.S. government's official web portal to all federal, state and local government web resources and services.